• In Hungary
  • List of Countries
  • For 7 days
  • Water Temperature
  • Satellite Maps
  • Weather Map
  • News
  • Weather Widgets
  • user-avatar
    Login

    Hourly Weather Lahaur

    Today, 20 November, Monday

    Time Temperature Precipitation Wind Pressure Humidity
    00:00 +19°C° 0 mm 1 mps 744 mmHg 28%
    01:00 +18°C° 0 mm 1 mps 744 mmHg 29%
    02:00 +18°C° 0 mm 1 mps 744 mmHg 30%
    03:00 +16°C° 0 mm 1 mps 744 mmHg 31%
    04:00 +16°C° 0 mm 1 mps 744 mmHg 31%
    05:00 +15°C° 0 mm 1 mps 743 mmHg 32%
    06:00 +16°C° 0 mm 1 mps 744 mmHg 31%
    07:00 +18°C° 0 mm 1 mps 744 mmHg 30%
    08:00 +19°C° 0 mm 1 mps 744 mmHg 29%
    09:00 +21°C° 0 mm 1 mps 745 mmHg 26%
    10:00 +23°C° 0 mm 1 mps 745 mmHg 23%
    11:00 +25°C° 0 mm 1 mps 745 mmHg 19%
    12:00 +26°C° 0 mm 1 mps 744 mmHg 18%
    13:00 +26°C° 0 mm 1 mps 744 mmHg 16%
    14:00 +27°C° 0 mm 2 mps 743 mmHg 15%
    15:00 +26°C° 0 mm 1 mps 743 mmHg 16%
    16:00 +24°C° 0 mm 1 mps 743 mmHg 18%
    17:00 +23°C° 0 mm 1 mps 743 mmHg 19%
    18:00 +22°C° 0 mm 1 mps 743 mmHg 20%
    19:00 +22°C° 0 mm 1 mps 743 mmHg 20%
    20:00 +21°C° 0 mm 1 mps 743 mmHg 21%
    21:00 +20°C° 0 mm 1 mps 743 mmHg 21%
    22:00 +20°C° 0 mm 1 mps 743 mmHg 22%
    23:00 +19°C° 0 mm 1 mps 743 mmHg 22%

    Tomorrow, 21 November, Tuesday

    Time Temperature Precipitation Wind Pressure Humidity
    00:00 +19°C° 0 mm 1 mps 743 mmHg 23%
    01:00 +17°C° 0 mm 2 mps 743 mmHg 23%
    02:00 +17°C° 0 mm 2 mps 742 mmHg 24%
    03:00 +16°C° 0 mm 2 mps 742 mmHg 25%
    04:00 +16°C° 0 mm 2 mps 742 mmHg 26%
    05:00 +16°C° 0 mm 2 mps 742 mmHg 26%
    06:00 +16°C° 0 mm 2 mps 742 mmHg 26%
    07:00 +17°C° 0 mm 2 mps 742 mmHg 26%
    08:00 +17°C° 0 mm 2 mps 743 mmHg 26%
    09:00 +19°C° 0 mm 2 mps 743 mmHg 22%
    10:00 +23°C° 0 mm 2 mps 743 mmHg 19%
    11:00 +25°C° 0 mm 2 mps 743 mmHg 16%
    12:00 +26°C° 0 mm 2 mps 743 mmHg 15%
    13:00 +27°C° 0 mm 3 mps 742 mmHg 14%
    14:00 +28°C° 0 mm 3 mps 741 mmHg 12%
    15:00 +27°C° 0 mm 2 mps 741 mmHg 13%
    16:00 +25°C° 0 mm 2 mps 741 mmHg 14%
    17:00 +24°C° 0 mm 2 mps 741 mmHg 15%
    18:00 +23°C° 0 mm 2 mps 741 mmHg 15%
    19:00 +21°C° 0 mm 2 mps 742 mmHg 15%
    20:00 +20°C° 0 mm 2 mps 742 mmHg 15%
    21:00 +19°C° 0 mm 2 mps 742 mmHg 15%
    22:00 +18°C° 0 mm 2 mps 742 mmHg 15%
    23:00 +17°C° 0 mm 2 mps 742 mmHg 16%

    Day after tomorrow, 22 November, Wednesday

    Time Temperature Precipitation Wind Pressure Humidity
    00:00 +17°C° 0 mm 2 mps 742 mmHg 16%
    01:00 +16°C° 0 mm 2 mps 742 mmHg 17%
    02:00 +16°C° 0 mm 2 mps 741 mmHg 17%
    03:00 +15°C° 0 mm 2 mps 741 mmHg 18%
    04:00 +15°C° 0 mm 2 mps 741 mmHg 18%
    05:00 +14°C° 0 mm 2 mps 741 mmHg 19%
    06:00 +15°C° 0 mm 2 mps 741 mmHg 19%
    07:00 +15°C° 0 mm 2 mps 742 mmHg 19%
    08:00 +16°C° 0 mm 2 mps 742 mmHg 18%
    09:00 +18°C° 0 mm 2 mps 742 mmHg 16%
    10:00 +21°C° 0 mm 2 mps 743 mmHg 14%
    11:00 +24°C° 0 mm 2 mps 743 mmHg 11%
    12:00 +25°C° 0 mm 2 mps 742 mmHg 10%
    13:00 +27°C° 0 mm 2 mps 742 mmHg 9%
    14:00 +28°C° 0 mm 3 mps 741 mmHg 8%
    15:00 +26°C° 0 mm 2 mps 741 mmHg 9%
    16:00 +25°C° 0 mm 2 mps 741 mmHg 10%
    17:00 +23°C° 0 mm 2 mps 740 mmHg 11%
    18:00 +21°C° 0 mm 2 mps 741 mmHg 11%
    19:00 +20°C° 0 mm 2 mps 741 mmHg 12%
    20:00 +19°C° 0 mm 2 mps 741 mmHg 12%
    21:00 +18°C° 0 mm 2 mps 741 mmHg 13%
    22:00 +18°C° 0 mm 2 mps 741 mmHg 13%
    23:00 +17°C° 0 mm 2 mps 741 mmHg 14%

    23 November, Thursday

    Time Temperature Precipitation Wind Pressure Humidity
    00:00 +16°C° 0 mm 2 mps 741 mmHg 15%
    01:00 +16°C° 0 mm 2 mps 741 mmHg 15%
    02:00 +15°C° 0 mm 1 mps 740 mmHg 16%
    03:00 +15°C° 0 mm 1 mps 740 mmHg 17%
    04:00 +15°C° 0 mm 1 mps 740 mmHg 17%
    05:00 +15°C° 0 mm 1 mps 740 mmHg 17%
    06:00 +15°C° 0 mm 1 mps 740 mmHg 18%
    07:00 +16°C° 0 mm 1 mps 740 mmHg 18%
    08:00 +16°C° 0 mm 1 mps 741 mmHg 18%
    09:00 +19°C° 0 mm 1 mps 741 mmHg 15%
    10:00 +21°C° 0 mm 1 mps 741 mmHg 13%
    11:00 +23°C° 0 mm 2 mps 741 mmHg 11%
    12:00 +24°C° 0 mm 2 mps 741 mmHg 10%
    13:00 +25°C° 0 mm 2 mps 741 mmHg 9%
    14:00 +26°C° 0 mm 2 mps 740 mmHg 8%
    15:00 +25°C° 0 mm 1 mps 740 mmHg 9%
    16:00 +23°C° 0 mm 1 mps 740 mmHg 10%
    17:00 +22°C° 0 mm 1 mps 740 mmHg 10%
    18:00 +19°C° 0 mm 0 mps 740 mmHg 11%
    19:00 +19°C° 0 mm 0 mps 741 mmHg 11%
    20:00 +18°C° 0 mm 0 mps 741 mmHg 11%
    21:00 +18°C° 0 mm 0 mps 742 mmHg 11%
    22:00 +17°C° 0 mm 0 mps 742 mmHg 12%
    23:00 +16°C° 0 mm 0 mps 742 mmHg 12%

    24 November, Friday

    Time Temperature Precipitation Wind Pressure Humidity
    00:00 +16°C° 0 mm 0 mps 742 mmHg 12%
    01:00 +16°C° 0 mm 0 mps 741 mmHg 12%
    02:00 +15°C° 0 mm 0 mps 741 mmHg 13%
    03:00 +15°C° 0 mm 0 mps 741 mmHg 13%
    04:00 +14°C° 0 mm 0 mps 741 mmHg 14%
    05:00 +14°C° 0 mm 0 mps 741 mmHg 14%
    06:00 +15°C° 0 mm 0 mps 741 mmHg 15%
    07:00 +15°C° 0 mm 0 mps 742 mmHg 15%
    08:00 +16°C° 0 mm 0 mps 742 mmHg 16%
    09:00 +20°C° 0 mm 1 mps 743 mmHg 14%
    10:00 +23°C° 0 mm 1 mps 743 mmHg 11%
    11:00 +25°C° 0 mm 1 mps 743 mmHg 9%
    12:00 +26°C° 0 mm 2 mps 742 mmHg 8%
    13:00 +27°C° 0 mm 2 mps 742 mmHg 8%
    14:00 +28°C° 0 mm 2 mps 741 mmHg 7%
    15:00 +27°C° 0 mm 2 mps 741 mmHg 8%
    16:00 +25°C° 0 mm 2 mps 741 mmHg 8%
    17:00 +24°C° 0 mm 1 mps 741 mmHg 9%
    18:00 +23°C° 0 mm 1 mps 741 mmHg 9%
    19:00 +22°C° 0 mm 1 mps 742 mmHg 9%
    20:00 +21°C° 0 mm 1 mps 742 mmHg 9%
    21:00 +20°C° 0 mm 1 mps 742 mmHg 10%
    22:00 +20°C° 0 mm 1 mps 742 mmHg 10%
    23:00 +19°C° 0 mm 1 mps 742 mmHg 10%

    25 November, Saturday

    Time Temperature Precipitation Wind Pressure Humidity
    00:00 +19°C° 0 mm 1 mps 742 mmHg 10%
    01:00 +18°C° 0 mm 1 mps 742 mmHg 11%
    02:00 +18°C° 0 mm 1 mps 741 mmHg 11%
    03:00 +16°C° 0 mm 1 mps 741 mmHg 12%
    04:00 +16°C° 0 mm 1 mps 741 mmHg 12%
    05:00 +16°C° 0 mm 1 mps 741 mmHg 13%
    06:00 +16°C° 0 mm 1 mps 741 mmHg 14%
    07:00 +18°C° 0 mm 1 mps 742 mmHg 14%
    08:00 +16°C° 0 mm 0 mps 742 mmHg 15%
    09:00 +21°C° 0 mm 1 mps 742 mmHg 13%
    10:00 +23°C° 0 mm 1 mps 743 mmHg 11%
    11:00 +25°C° 0 mm 1 mps 743 mmHg 9%
    12:00 +27°C° 0 mm 2 mps 742 mmHg 8%
    13:00 +28°C° 0 mm 2 mps 742 mmHg 7%
    14:00 +29°C° 0 mm 2 mps 741 mmHg 7%
    15:00 +27°C° 0 mm 2 mps 741 mmHg 7%
    16:00 +26°C° 0 mm 1 mps 741 mmHg 8%
    17:00 +24°C° 0 mm 1 mps 741 mmHg 9%
    18:00 +23°C° 0 mm 1 mps 742 mmHg 9%
    19:00 +22°C° 0 mm 1 mps 742 mmHg 10%
    20:00 +19°C° 0 mm 0 mps 743 mmHg 10%
    21:00 +19°C° 0 mm 0 mps 743 mmHg 10%
    22:00 +19°C° 0 mm 0 mps 743 mmHg 10%
    23:00 +20°C° 0 mm 1 mps 743 mmHg 11%
    Show more